Weather History for KLKR - July, 2013

Change the Weather History Date:

Saturday, July 6, 2013

  Actual Average (KCLT) Record (KCLT)
Temperature  
Mean Temperature 76 °F 78 °F  
Max Temperature 84 °F 89 °F 99 °F (1948)
Min Temperature 68 °F 68 °F 57 °F (1964)
Degree Days  
Heating Degree Days 0 0  
Month to date heating degree days 0  
Since 1 June heating degree days 3  
Since 1 July heating degree days 0  
Cooling Degree Days 11 13  
Month to date cooling degree days 78  
Year to date cooling degree days 552  
Since 1 June cooling degree days 389  
Growing Degree Days 26 (Base 50)    
Moisture  
Dew Point 74 °F    
Average Humidity 97    
Maximum Humidity 100    
Minimum Humidity 79    
Precipitation  
Precipitation 0.00 in 0.10 in 1.95 in (1941)
Month to date precipitation 0.61  
Year to date precipitation 21.31  
Snow  
Snow 0.00 in 0.00 in 0.00 in ()
Month to date snowfall 0.0  
Since 1 June snowfall 0.0  
Since 1 July snowfall 0.0  
Snow Depth -    
Sea Level Pressure  
Sea Level Pressure 30.21 in    
Wind  
Wind Speed 1 mph (SSE)    
Max Wind Speed 7 mph    
Max Gust Speed -    
Visibility 6 miles    
Events Rain , Thunderstorm    
T = Trace of Precipitation, MM = Missing Value Source: NWS Daily Summary

Daily Weather History Graph

Daily Weather History Graph

Search for Another Location

Airport or City:

Trip Planner

Search our weather history database for the weather conditions in past years. The results will help you decide how hot, cold, wet, or windy it might be!

Date:

Astronomy

Jul. 06, 2013 Rise Set
Actual Time 6:16 AM EDT 8:39 PM EDT
Civil Twilight 5:47 AM EDT 9:09 PM EDT
Nautical Twilight 5:11 AM EDT 9:45 PM EDT
Astronomical Twilight 4:31 AM EDT 10:24 PM EDT
Moon 4:59 AM EDT (7/6) 7:22 PM EDT (7/6)
Length of Visible Light 15h 22m
Length of Day
14h 23m
Waning Crescent, 2% of the Moon is Illuminated
Jul 6
Waning Crescent
Jul 8
New
Jul 15
First Quarter
Jul 22
Full
Jul 29
Last Quarter

Hourly Weather History & Observations

Time (EDT) Temp. Heat Index Dew Point Humidity Pressure Visibility Wind Dir Wind Speed Gust Speed Precip Events Conditions
12:15 AM 71.6 °F - 71.6 °F 100% 30.24 in 1.8 mi Calm Calm - N/A Rain Light Rain
12:35 AM 71.6 °F - 71.6 °F 100% 30.24 in 1.5 mi Calm Calm - N/A Rain Light Rain
12:55 AM 71.6 °F - 71.6 °F 100% 30.24 in 10.0 mi Calm Calm - N/A Rain Light Rain
1:15 AM 71.6 °F - 71.6 °F 100% 30.23 in 4.0 mi Calm Calm - N/A Rain Light Rain
1:35 AM 69.8 °F - 69.8 °F 100% 30.23 in 4.0 mi Calm Calm - N/A Rain Light Rain
1:55 AM 69.8 °F - 69.8 °F 100% 30.23 in 4.0 mi Calm Calm - N/A Rain Light Rain
2:15 AM 69.8 °F - 69.8 °F 100% 30.22 in 4.0 mi Calm Calm - N/A Rain Light Rain
2:35 AM 68.0 °F - 68.0 °F 100% 30.22 in 3.0 mi Calm Calm - N/A Rain Light Rain
2:55 AM 68.0 °F - 68.0 °F 100% 30.21 in 3.0 mi Calm Calm - N/A Rain Light Rain
3:15 AM 69.8 °F - 69.8 °F 100% 30.22 in 5.0 mi Calm Calm - N/A Rain Light Rain
3:35 AM 69.8 °F - 69.8 °F 100% 30.22 in 6.0 mi Calm Calm - N/A Rain Light Rain
3:55 AM 69.8 °F - 69.8 °F 100% 30.21 in 4.0 mi Calm Calm - N/A Rain Light Rain
4:15 AM 71.6 °F - 71.6 °F 100% 30.21 in 3.0 mi Calm Calm - N/A Rain Light Rain
4:35 AM 71.6 °F - 71.6 °F 100% 30.21 in 2.5 mi Calm Calm - N/A Rain Light Rain
4:55 AM 71.6 °F - 71.6 °F 100% 30.22 in 1.0 mi Calm Calm - N/A Rain Light Rain
5:15 AM 71.6 °F - 71.6 °F 100% 30.22 in 0.5 mi Calm Calm - N/A Rain Light Rain
5:35 AM 71.6 °F - 71.6 °F 100% 30.22 in 0.5 mi Calm Calm - N/A Rain Light Rain
5:55 AM 71.6 °F - 71.6 °F 100% 30.22 in 0.8 mi Calm Calm - N/A Rain Light Rain
6:15 AM 71.6 °F - 71.6 °F 100% 30.23 in 1.0 mi Calm Calm - N/A Rain Light Rain
6:35 AM 71.6 °F - 71.6 °F 100% 30.23 in 0.8 mi Calm Calm - N/A Rain Light Rain
6:55 AM 71.6 °F - 71.6 °F 100% 30.24 in 0.8 mi Calm Calm - N/A Rain Light Rain
7:15 AM 73.4 °F - 73.4 °F 100% 30.24 in 1.0 mi Calm Calm - N/A Rain Light Rain
7:35 AM 73.4 °F - 73.4 °F 100% 30.24 in 1.2 mi Calm Calm - N/A Rain Light Rain
7:55 AM 73.4 °F - 73.4 °F 100% 30.24 in 1.5 mi SE 3.5 mph - N/A Rain Light Rain
8:15 AM 73.4 °F - 73.4 °F 100% 30.25 in 3.0 mi Calm Calm - N/A Rain Light Rain
8:35 AM 73.4 °F - 73.4 °F 100% 30.26 in 2.5 mi Calm Calm - N/A Rain Light Rain
8:55 AM 73.4 °F - 73.4 °F 100% 30.26 in 3.0 mi South 3.5 mph - N/A Rain Light Rain
9:15 AM 73.4 °F - 73.4 °F 100% 30.26 in 4.0 mi Calm Calm - N/A Rain Light Rain
9:35 AM 75.2 °F - 75.2 °F 100% 30.26 in 10.0 mi South 3.5 mph - N/A   Overcast
9:55 AM 75.2 °F - 75.2 °F 100% 30.25 in 10.0 mi South 3.5 mph - N/A   Mostly Cloudy
10:15 AM 77.0 °F - 77.0 °F 100% 30.25 in 7.0 mi SSW 3.5 mph - N/A   Mostly Cloudy
10:35 AM 78.8 °F - 77.0 °F 94% 30.25 in 7.0 mi Calm Calm - N/A   Scattered Clouds
10:55 AM 78.8 °F - 77.0 °F 94% 30.25 in 7.0 mi Calm Calm - N/A   Mostly Cloudy
11:15 AM 80.6 °F 87.1 °F 77.0 °F 89% 30.25 in 10.0 mi SW 3.5 mph - N/A   Mostly Cloudy
11:35 AM 80.6 °F 87.1 °F 77.0 °F 89% 30.24 in 8.0 mi Calm Calm - N/A   Scattered Clouds
11:55 AM 75.2 °F - 75.2 °F 100% 30.25 in 0.2 mi SSE 3.5 mph - N/A Rain Heavy Rain
12:15 PM 77.0 °F - 77.0 °F 100% 30.25 in 4.0 mi Calm Calm - N/A Rain Light Rain
12:35 PM 77.0 °F - 77.0 °F 100% 30.24 in 8.0 mi Calm Calm - N/A Rain Light Rain
12:55 PM 77.0 °F - 77.0 °F 100% 30.23 in 1.5 mi Calm Calm - N/A Rain Light Rain
1:15 PM 80.6 °F 89.3 °F 80.6 °F 100% 30.22 in 4.0 mi West 4.6 mph - N/A Rain Light Rain
1:35 PM 77.0 °F - 77.0 °F 100% 30.21 in 9.0 mi Calm Calm - N/A   Mostly Cloudy
1:55 PM 82.4 °F 89.5 °F 75.2 °F 79% 30.20 in 8.0 mi Calm Calm - N/A   Scattered Clouds
2:15 PM 80.6 °F 89.3 °F 80.6 °F 100% 30.20 in 5.0 mi South 3.5 mph - N/A Rain Light Rain
2:35 PM 82.4 °F 92.4 °F 78.8 °F 89% 30.20 in 10.0 mi Calm Calm - N/A   Partly Cloudy
2:55 PM 82.4 °F 90.9 °F 77.0 °F 84% 30.19 in 9.0 mi SSE 4.6 mph - N/A   Partly Cloudy
3:15 PM 80.6 °F 89.3 °F 80.6 °F 100% 30.18 in 8.0 mi Calm Calm - N/A   Scattered Clouds
3:35 PM 84.2 °F 94.1 °F 77.0 °F 79% 30.17 in 8.0 mi Calm Calm - N/A   Clear
3:55 PM 84.2 °F 94.1 °F 77.0 °F 79% 30.16 in 8.0 mi ESE 3.5 mph - N/A   Partly Cloudy
4:15 PM 84.2 °F 94.1 °F 77.0 °F 79% 30.16 in 9.0 mi SE 6.9 mph - N/A   Partly Cloudy
4:35 PM 77.0 °F - 77.0 °F 100% 30.17 in 2.0 mi SE 4.6 mph - N/A Rain Light Rain
4:55 PM 77.0 °F - 77.0 °F 100% 30.16 in 10.0 mi SSE 3.5 mph - N/A   Clear
5:15 PM 82.4 °F 90.9 °F 77.0 °F 84% 30.15 in 8.0 mi SSE 4.6 mph - N/A   Clear
5:35 PM 80.6 °F 87.1 °F 77.0 °F 89% 30.15 in 10.0 mi SSE 4.6 mph - N/A   Clear
5:55 PM 80.6 °F 87.1 °F 77.0 °F 89% 30.14 in 8.0 mi SSE 3.5 mph - N/A Thunderstorm Clear
6:15 PM 80.6 °F 87.1 °F 77.0 °F 89% 30.14 in 10.0 mi South 4.6 mph - N/A   Partly Cloudy
6:35 PM 82.4 °F 90.9 °F 77.0 °F 84% 30.14 in 8.0 mi SE 4.6 mph - N/A   Partly Cloudy
6:55 PM 80.6 °F 87.1 °F 77.0 °F 89% 30.15 in 6.0 mi SSE 4.6 mph - N/A   Clear
7:15 PM 80.6 °F 87.1 °F 77.0 °F 89% 30.16 in 8.0 mi SSE 4.6 mph - N/A   Clear
7:35 PM 75.2 °F - 75.2 °F 100% 30.17 in 1.8 mi SSW 5.8 mph - N/A Rain Light Rain
7:55 PM 73.4 °F - 73.4 °F 100% 30.17 in 10.0 mi Calm Calm - N/A   Partly Cloudy
8:15 PM 73.4 °F - 73.4 °F 100% 30.18 in 9.0 mi Calm Calm - N/A Rain Light Rain
8:35 PM 73.4 °F - 73.4 °F 100% 30.19 in 9.0 mi Calm Calm - N/A Rain Light Rain
8:55 PM 73.4 °F - 73.4 °F 100% 30.18 in 3.0 mi Calm Calm - N/A Rain Light Rain
9:15 PM 73.4 °F - 73.4 °F 100% 30.19 in 5.0 mi Calm Calm - N/A Rain Light Rain
9:35 PM 73.4 °F - 73.4 °F 100% 30.19 in 7.0 mi Calm Calm - N/A Rain Light Rain
9:55 PM 73.4 °F - 73.4 °F 100% 30.20 in 10.0 mi Calm Calm - N/A   Mostly Cloudy
10:15 PM 73.4 °F - 73.4 °F 100% 30.20 in 6.0 mi Calm Calm - N/A Rain Light Rain
10:35 PM 73.4 °F - 73.4 °F 100% 30.21 in 10.0 mi SSE 3.5 mph - N/A Rain Light Rain
10:55 PM 73.4 °F - 73.4 °F 100% 30.20 in 10.0 mi Calm Calm - N/A Rain Light Rain
11:15 PM 73.4 °F - 73.4 °F 100% 30.21 in 10.0 mi Calm Calm - N/A Rain Light Rain
11:35 PM 73.4 °F - 73.4 °F 100% 30.20 in 5.0 mi Calm Calm - N/A Rain Light Rain
11:55 PM 73.4 °F - 73.4 °F 100% 30.20 in 4.0 mi Calm Calm - N/A Rain Light Rain